N5MCB Weather Reports


time (UTC)temp
C
wind
direction
speed
KPH
gust
KPH
rain 1hr
cm
rain 24hr
cm
rain mn
cm
humidity
%
barometer
mb
20260906223737 36 131 3.2 4.8 0.00 0.00 0.00 41 1010.6
20260906223221 36 220 1.6 3.2 0.00 0.00 0.00 41 1010.7
20260906222713 36 116 6.4 9.7 0.00 0.00 0.00 40 1010.7
20260906222206 36 94 1.6 3.2 0.00 0.00 0.00 41 1010.9
20260906221704 36 89 4.8 6.4 0.00 0.00 0.00 41 1010.8
20260906221158 36 98 0.0 0.0 0.00 0.00 0.00 42 1010.7
20260906220648 36 129 3.2 3.2 0.00 0.00 0.00 41 1010.8
20260906220142 36 82 3.2 3.2 0.00 0.00 0.00 41 1010.9
20260906215636 36 57 6.4 9.7 0.00 0.00 0.00 41 1010.7
20260906215135 36 142 1.6 1.6 0.00 0.00 0.00 42 1010.5
20260906214620 36 91 3.2 4.8 0.00 0.00 0.00 42 1010.8
20260906214112 36 91 3.2 3.2 0.00 0.00 0.00 41 1011.0
20260906213605 36 145 4.8 6.4 0.00 0.00 0.00 42 1011.0
20260906213101 36 94 1.6 1.6 0.00 0.00 0.00 42 1011.0
20260906212551 36 93 1.6 3.2 0.00 0.00 0.00 42 1010.9
20260906212037 36 93 3.2 4.8 0.00 0.00 0.00 42 1011.1
20260906211529 36 107 4.8 6.4 0.00 0.00 0.00 43 1011.3
20260906211023 36 94 1.6 3.2 0.00 0.00 0.00 43 1011.3
20260906210517 36 82 3.2 4.8 0.00 0.00 0.00 42 1011.3
20260906210016 36 125 3.2 6.4 0.00 0.00 0.00 42 1011.6
20260906205510 36 83 1.6 3.2 0.00 0.00 0.00 43 1011.6
20260906204959 36 87 6.4 9.7 0.00 0.00 0.00 43 1011.6
20260906204453 36 130 3.2 4.8 0.00 0.00 0.00 43 1011.5
20260906203947 36 122 1.6 3.2 0.00 0.00 0.00 42 1011.7
20260906203434 36 144 6.4 6.4 0.00 0.00 0.00 42 1011.8
20260906202912 36 91 1.6 3.2 0.00 0.00 0.00 42 1011.7
20260906202404 36 92 3.2 4.8 0.00 0.00 0.00 42 1011.9
20260906201858 36 114 4.8 4.8 0.00 0.00 0.00 42 1011.9
20260906201352 36 113 1.6 3.2 0.00 0.00 0.00 42 1012.0
20260906200847 36 162 3.2 6.4 0.00 0.00 0.00 41 1011.9
20260906200346 36 128 1.6 4.8 0.00 0.00 0.00 42 1012.1
20260906195835 36 168 3.2 3.2 0.00 0.00 0.00 43 1012.1
20260906195329 36 106 3.2 4.8 0.00 0.00 0.00 43 1012.2
20260906194821 36 105 3.2 4.8 0.00 0.00 0.00 43 1012.4
20260906194318 36 108 3.2 3.2 0.00 0.00 0.00 43 1012.4
20260906193812 36 145 6.4 9.7 0.00 0.00 0.00 44 1012.4
20260906193251 36 135 0.0 0.0 0.00 0.00 0.00 45 1012.3
20260906192734 36 91 1.6 1.6 0.00 0.00 0.00 44 1012.4
20260906192225 36 129 1.6 1.6 0.00 0.00 0.00 44 1012.6
20260906191714 36 110 4.8 4.8 0.00 0.00 0.00 44 1012.6
20260906191213 36 97 0.0 1.6 0.00 0.00 0.00 45 1012.7
20260906190656 36 77 4.8 6.4 0.00 0.00 0.00 44 1012.9
20260906190145 36 96 1.6 1.6 0.00 0.00 0.00 46 1012.9
20260906185634 36 39 1.6 1.6 0.00 0.00 0.00 44 1012.7
20260906185128 36 26 3.2 6.4 0.00 0.00 0.00 45 1012.7
20260906184620 36 109 4.8 6.4 0.00 0.00 0.00 46 1013.0
20260906184117 36 109 3.2 3.2 0.00 0.00 0.00 46 1013.1
20260906183609 36 109 3.2 3.2 0.00 0.00 0.00 47 1012.9
20260906183055 36 88 3.2 4.8 0.00 0.00 0.00 47 1012.9
20260906182545 36 130 4.8 6.4 0.00 0.00 0.00 46 1013.3
20260906182043 36 50 3.2 4.8 0.00 0.00 0.00 45 1013.4
20260906181537 36 98 0.0 0.0 0.00 0.00 0.00 45 1013.3
20260906181032 36 129 3.2 4.8 0.00 0.00 0.00 45 1013.4
20260906180521 36 104 8.0 11.3 0.00 0.00 0.00 45 1013.3
20260906180020 36 100 1.6 1.6 0.00 0.00 0.00 46 1013.3
20260906175509 35 75 3.2 3.2 0.00 0.00 0.00 47 1013.7
20260906175003 36 104 1.6 1.6 0.00 0.00 0.00 46 1013.8
20260906174455 36 210 6.4 6.4 0.00 0.00 0.00 45 1013.9
20260906173947 36 121 3.2 3.2 0.00 0.00 0.00 46 1013.8
20260906173442 35 54 3.2 4.8 0.00 0.00 0.00 47 1013.9
20260906172929 36 116 6.4 9.7 0.00 0.00 0.00 46 1013.9
20260906172421 36 128 0.0 1.6 0.00 0.00 0.00 48 1014.1
20260906171912 36 95 1.6 1.6 0.00 0.00 0.00 47 1014.2
20260906171402 35 116 4.8 4.8 0.00 0.00 0.00 47 1014.3
20260906170854 35 200 4.8 6.4 0.00 0.00 0.00 47 1014.1
20260906170346 36 203 1.6 4.8 0.00 0.00 0.00 47 1014.4
20260906165837 35 82 0.0 0.0 0.00 0.00 0.00 48 1014.4
20260906165331 35 79 1.6 3.2 0.00 0.00 0.00 48 1014.5
20260906164825 35 81 6.4 11.3 0.00 0.00 0.00 48 1014.4
20260906164319 35 110 1.6 3.2 0.00 0.00 0.00 48 1014.4
20260906163806 35 99 3.2 3.2 0.00 0.00 0.00 49 1014.4
20260906163244 35 145 4.8 6.4 0.00 0.00 0.00 48 1014.5
20260906162737 35 61 1.6 4.8 0.00 0.00 0.00 49 1014.2
20260906162236 35 137 6.4 9.7 0.00 0.00 0.00 50 1014.1
20260906161725 35 122 3.2 4.8 0.00 0.00 0.00 50 1014.2
20260906161219 34 101 0.0 1.6 0.00 0.00 0.00 50 1014.2
20260906160717 34 84 4.8 6.4 0.00 0.00 0.00 51 1014.1
20260906160204 35 83 1.6 1.6 0.00 0.00 0.00 51 1014.3
20260906155651 34 108 3.2 3.2 0.00 0.00 0.00 53 1014.3
20260906155135 35 96 1.6 1.6 0.00 0.00 0.00 53 1014.2
20260906154629 35 44 0.0 1.6 0.00 0.00 0.00 53 1014.1
20260906154118 33 89 4.8 6.4 0.00 0.00 0.00 55 1014.1
20260906153617 35 128 3.2 3.2 0.00 0.00 0.00 54 1014.2
20260906153102 34 120 0.0 1.6 0.00 0.00 0.00 57 1014.1
20260906152556 34 93 1.6 1.6 0.00 0.00 0.00 59 1014.0
20260906152050 33 92 1.6 3.2 0.00 0.00 0.00 59 1013.9
20260906151536 33 94 0.0 1.6 0.00 0.00 0.00 61 1014.0
20260906151024 32 99 0.0 0.0 0.00 0.00 0.00 63 1014.1
20260906150511 32 92 4.8 6.4 0.00 0.00 0.00 64 1013.9
20260906150005 33 122 1.6 1.6 0.00 0.00 0.00 62 1013.8
20260906145459 32 103 0.0 0.0 0.00 0.00 0.00 63 1013.9
20260906144953 32 98 0.0 1.6 0.00 0.00 0.00 65 1013.9
20260906144442 32 104 0.0 1.6 0.00 0.00 0.00 64 1014.1
20260906143936 31 95 0.0 0.0 0.00 0.00 0.00 66 1014.0
20260906143430 32 95 0.0 1.6 0.00 0.00 0.00 66 1013.9
20260906142929 31 109 0.0 0.0 0.00 0.00 0.00 67 1014.1
20260906142426 31 97 1.6 1.6 0.00 0.00 0.00 67 1014.1
20260906141918 31 93 0.0 0.0 0.00 0.00 0.00 69 1014.1
20260906141402 30 105 0.0 0.0 0.00 0.00 0.00 69 1014.4
20260906140857 30 112 3.2 3.2 0.00 0.00 0.00 71 1014.2
20260906140351 30 92 0.0 0.0 0.00 0.00 0.00 74 1014.0
20260906135850 29 91 1.6 1.6 0.00 0.00 0.00 74 1014.0
20260906135332 29 94 1.6 1.6 0.00 0.00 0.00 75 1014.0
20260906134809 30 90 1.6 1.6 0.00 0.00 0.00 74 1013.8
20260906134258 30 98 0.0 0.0 0.00 0.00 0.00 72 1014.0
20260906133751 29 97 0.0 0.0 0.00 0.00 0.00 74 1014.0
20260906133237 29 97 0.0 0.0 0.00 0.00 0.00 75 1014.0
20260906132729 30 113 1.6 1.6 0.00 0.00 0.00 74 1013.9
20260906132219 30 95 0.0 0.0 0.00 0.00 0.00 74 1014.0
20260906131717 28 94 0.0 0.0 0.00 0.00 0.00 75 1014.0
20260906131206 28 88 0.0 1.6 0.00 0.00 0.00 76 1014.1
20260906130654 28 94 0.0 0.0 0.00 0.00 0.00 79 1013.9
20260906130133 27 112 1.6 1.6 0.00 0.00 0.00 81 1014.0
20260906125627 26 97 0.0 0.0 0.00 0.00 0.00 83 1013.8
20260906125121 26 102 1.6 1.6 0.00 0.00 0.00 83 1013.8
20260906124608 26 96 0.0 0.0 0.00 0.00 0.00 85 1013.8
20260906124052 26 98 0.0 0.0 0.00 0.00 0.00 86 1013.7
20260906123539 25 100 0.0 0.0 0.00 0.00 0.00 87 1013.5
20260906123021 25 98 0.0 0.0 0.00 0.00 0.00 89 1013.7
20260906122516 25 99 0.0 0.0 0.00 0.00 0.00 89 1013.7
20260906122009 25 97 0.0 0.0 0.00 0.00 0.00 89 1013.5
20260906121503 25 98 0.0 0.0 0.00 0.00 0.00 89 1013.5
20260906120958 25 100 0.0 0.0 0.00 0.00 0.00 89 1013.5
20260906120452 25 100 0.0 0.0 0.00 0.00 0.00 89 1013.5
20260906115946 25 100 0.0 0.0 0.00 0.00 0.00 88 1013.3
20260906115440 25 100 0.0 0.0 0.00 0.00 0.00 88 1013.3
20260906114934 25 103 0.0 0.0 0.00 0.00 0.00 88 1013.2
20260906114428 25 99 0.0 0.0 0.00 0.00 0.00 88 1013.2
20260906113922 25 99 0.0 0.0 0.00 0.00 0.00 88 1013.1
20260906010817 33 89 3.2 3.2 0.00 0.00 0.00 51 1011.0
20260906010311 33 91 3.2 4.8 0.00 0.00 0.00 50 1010.9
20260906005805 34 95 1.6 3.2 0.00 0.00 0.00 47 1010.7
20260906005259 34 99 1.6 1.6 0.00 0.00 0.00 47 1010.7
20260906004758 34 108 0.0 1.6 0.00 0.00 0.00 46 1010.6
20260906004247 34 94 0.0 1.6 0.00 0.00 0.00 46 1010.4
20260906003740 34 94 0.0 0.0 0.00 0.00 0.00 46 1010.6
20260906003234 34 97 0.0 0.0 0.00 0.00 0.00 45 1010.5
20260906002733 35 94 1.6 1.6 0.00 0.00 0.00 45 1010.6
20260906002222 35 94 0.0 0.0 0.00 0.00 0.00 45 1010.7
20260906001716 35 67 1.6 3.2 0.00 0.00 0.00 44 1010.5
20260906001210 35 95 0.0 0.0 0.00 0.00 0.00 44 1010.7
20260906000705 35 96 0.0 1.6 0.00 0.00 0.00 44 1010.6
20260906000152 35 118 6.4 6.4 0.00 0.00 0.00 44 1010.5
20260905235641 35 108 0.0 0.0 0.00 0.00 0.00 44 1010.6
20260905235130 35 100 0.0 0.0 0.00 0.00 0.00 43 1010.6
20260905234624 35 94 1.6 1.6 0.00 0.00 0.00 43 1010.4
20260905234118 35 109 1.6 1.6 0.00 0.00 0.00 43 1010.3
20260905233608 35 103 1.6 1.6 0.00 0.00 0.00 43 1010.4
20260905233102 35 90 1.6 1.6 0.00 0.00 0.00 42 1010.5
20260905232552 35 83 3.2 4.8 0.00 0.00 0.00 43 1010.4
20260905232045 36 111 1.6 3.2 0.00 0.00 0.00 42 1010.4
20260905231531 36 100 3.2 4.8 0.00 0.00 0.00 42 1010.6
20260905231016 36 91 3.2 3.2 0.00 0.00 0.00 42 1010.5
20260905230510 36 99 0.0 0.0 0.00 0.00 0.00 42 1010.6
20260905230004 36 103 3.2 4.8 0.00 0.00 0.00 41 1010.6
20260905225458 36 154 3.2 4.8 0.00 0.00 0.00 42 1010.4
20260905224952 36 96 0.0 1.6 0.00 0.00 0.00 42 1010.5
20260905224446 36 96 1.6 1.6 0.00 0.00 0.00 41 1010.4
20260905223933 36 107 3.2 3.2 0.00 0.00 0.00 41 1010.4